| time (UTC) | temp C | wind direction | speed KPH | gust KPH | rain 1hr cm | rain 24hr cm | rain mn cm | humidity % | barometer mb |
| 20260503035320 | 12 | 229 | 6.4 | 8.0 | 0.00 | 0.00 | 0.00 | 72 | 1020.6 |
| 20260503034818 | 12 | 299 | 6.4 | 8.0 | 0.00 | 0.00 | 0.00 | 72 | 1020.6 |
| 20260503034315 | 12 | 19 | 3.2 | 8.0 | 0.00 | 0.00 | 0.00 | 71 | 1020.7 |
| 20260503033834 | 12 | 31 | 3.2 | 8.0 | 0.00 | 0.00 | 0.00 | 71 | 1020.6 |
| 20260503033327 | 12 | 351 | 1.6 | 6.4 | 0.00 | 0.00 | 0.00 | 71 | 1020.6 |
| 20260503032824 | 13 | 351 | 1.6 | 9.7 | 0.00 | 0.00 | 0.00 | 70 | 1020.6 |
| 20260503032321 | 13 | 349 | 6.4 | 9.7 | 0.00 | 0.00 | 0.00 | 69 | 1020.7 |
| 20260503031816 | 13 | 327 | 8.0 | 9.7 | 0.00 | 0.00 | 0.00 | 69 | 1020.7 |
| 20260503031334 | 13 | 327 | 8.0 | 12.9 | 0.00 | 0.00 | 0.00 | 70 | 1020.7 |
| 20260503030830 | 13 | 348 | 8.0 | 12.9 | 0.00 | 0.00 | 0.00 | 69 | 1020.7 |
| 20260503030328 | 13 | 310 | 4.8 | 6.4 | 0.00 | 0.00 | 0.00 | 69 | 1020.8 |
| 20260503025825 | 13 | 10 | 4.8 | 6.4 | 0.00 | 0.00 | 0.00 | 70 | 1020.7 |
| 20260503025342 | 13 | 325 | 3.2 | 8.0 | 0.00 | 0.00 | 0.00 | 70 | 1020.7 |
| 20260503024819 | 13 | 325 | 6.4 | 8.0 | 0.00 | 0.00 | 0.00 | 70 | 1020.9 |
| 20260503024316 | 13 | 331 | 6.4 | 8.0 | 0.00 | 0.00 | 0.00 | 70 | 1020.9 |
| 20260503023814 | 13 | 44 | 1.6 | 4.8 | 0.00 | 0.00 | 0.00 | 69 | 1021.0 |
| 20260503023332 | 13 | 44 | 0.0 | 8.0 | 0.00 | 0.00 | 0.00 | 69 | 1020.9 |
| 20260503022830 | 13 | 44 | 6.4 | 8.0 | 0.00 | 0.00 | 0.00 | 69 | 1021.0 |
| 20260503022329 | 13 | 351 | 1.6 | 6.4 | 0.00 | 0.00 | 0.00 | 69 | 1021.0 |
| 20260503021829 | 13 | 351 | 4.8 | 6.4 | 0.00 | 0.00 | 0.00 | 69 | 1021.0 |
| 20260503021326 | 13 | 301 | 3.2 | 6.4 | 0.00 | 0.00 | 0.00 | 68 | 1021.0 |
| 20260503020825 | 14 | 42 | 1.6 | 6.4 | 0.00 | 0.00 | 0.00 | 67 | 1021.0 |
| 20260503020345 | 14 | 42 | 3.2 | 8.0 | 0.00 | 0.00 | 0.00 | 66 | 1021.0 |
| 20260503015823 | 15 | 320 | 4.8 | 8.0 | 0.00 | 0.00 | 0.00 | 66 | 1021.0 |
| 20260503015320 | 15 | 5 | 3.2 | 16.1 | 0.00 | 0.00 | 0.00 | 65 | 1021.1 |
| 20260503014819 | 15 | 351 | 8.0 | 16.1 | 0.00 | 0.00 | 0.00 | 65 | 1021.0 |
| 20260503014318 | 15 | 331 | 8.0 | 12.9 | 0.00 | 0.00 | 0.00 | 65 | 1021.1 |
| 20260503013817 | 15 | 300 | 8.0 | 12.9 | 0.00 | 0.00 | 0.00 | 66 | 1021.1 |
| 20260503013315 | 14 | 323 | 8.0 | 12.9 | 0.00 | 0.00 | 0.00 | 68 | 1021.1 |
| 20260503012833 | 13 | 299 | 9.7 | 12.9 | 0.00 | 0.00 | 0.00 | 67 | 1021.2 |
| 20260503012331 | 14 | 304 | 4.8 | 12.9 | 0.00 | 0.00 | 0.00 | 66 | 1021.2 |
| 20260503011828 | 14 | 44 | 4.8 | 8.0 | 0.00 | 0.00 | 0.00 | 66 | 1021.2 |
| 20260503011324 | 14 | 296 | 3.2 | 16.1 | 0.00 | 0.00 | 0.00 | 66 | 1021.3 |
| 20260503010843 | 15 | 351 | 8.0 | 16.1 | 0.00 | 0.00 | 0.00 | 65 | 1021.4 |
| 20260503010340 | 15 | 329 | 11.3 | 16.1 | 0.00 | 0.00 | 0.00 | 64 | 1021.4 |
| 20260503005819 | 15 | 360 | 11.3 | 16.1 | 0.00 | 0.00 | 0.00 | 64 | 1021.4 |
| 20260503005336 | 15 | 342 | 8.0 | 12.9 | 0.00 | 0.00 | 0.00 | 65 | 1021.4 |
| 20260503004859 | 15 | 331 | 6.4 | 9.7 | 0.00 | 0.00 | 0.00 | 65 | 1021.5 |
| 20260503004357 | 14 | 304 | 4.8 | 8.0 | 0.00 | 0.00 | 0.00 | 66 | 1021.5 |
| 20260503003830 | 14 | 351 | 4.8 | 8.0 | 0.00 | 0.00 | 0.00 | 66 | 1021.5 |
| 20260503003327 | 14 | 341 | 4.8 | 8.0 | 0.00 | 0.00 | 0.00 | 65 | 1021.6 |
| 20260503002825 | 14 | 321 | 4.8 | 8.0 | 0.00 | 0.00 | 0.00 | 66 | 1021.7 |
| 20260503002342 | 13 | 334 | 4.8 | 6.4 | 0.00 | 0.00 | 0.00 | 67 | 1021.8 |
| 20260503001839 | 14 | 342 | 4.8 | 9.7 | 0.00 | 0.00 | 0.00 | 66 | 1021.7 |
| 20260503001334 | 14 | 342 | 6.4 | 9.7 | 0.00 | 0.00 | 0.00 | 66 | 1021.8 |
| 20260503000834 | 15 | 331 | 8.0 | 9.7 | 0.00 | 0.00 | 0.00 | 65 | 1021.8 |
| 20260503000319 | 15 | 360 | 4.8 | 8.0 | 0.00 | 0.00 | 0.00 | 65 | 1021.9 |
| 20260502235816 | 15 | 360 | 6.4 | 9.7 | 0.00 | 0.00 | 0.00 | 65 | 1021.9 |
| 20260502235333 | 15 | 346 | 6.4 | 9.7 | 0.00 | 0.00 | 0.00 | 65 | 1022.0 |
| 20260502234852 | 15 | 344 | 3.2 | 6.4 | 0.00 | 0.00 | 0.00 | 64 | 1021.9 |
| 20260502234328 | 15 | 302 | 3.2 | 8.0 | 0.00 | 0.00 | 0.00 | 65 | 1022.0 |
| 20260502233821 | 15 | 300 | 3.2 | 8.0 | 0.00 | 0.00 | 0.00 | 64 | 1022.1 |
| 20260502233321 | 15 | 33 | 3.2 | 8.0 | 0.00 | 0.00 | 0.00 | 63 | 1022.1 |
| 20260502232845 | 15 | 15 | 4.8 | 12.9 | 0.00 | 0.00 | 0.00 | 63 | 1022.1 |
| 20260502232322 | 15 | 22 | 8.0 | 12.9 | 0.00 | 0.00 | 0.00 | 63 | 1022.1 |
| 20260502231819 | 15 | 340 | 8.0 | 14.5 | 0.00 | 0.00 | 0.00 | 63 | 1022.2 |
| 20260502231336 | 15 | 16 | 8.0 | 14.5 | 0.00 | 0.00 | 0.00 | 64 | 1022.2 |
| 20260502230855 | 15 | 335 | 9.7 | 14.5 | 0.00 | 0.00 | 0.00 | 64 | 1022.3 |
| 20260502230328 | 15 | 15 | 3.2 | 8.0 | 0.00 | 0.00 | 0.00 | 64 | 1022.2 |
| 20260502225833 | 15 | 17 | 3.2 | 8.0 | 0.00 | 0.00 | 0.00 | 63 | 1022.3 |
| 20260502225322 | 15 | 301 | 4.8 | 12.9 | 0.00 | 0.00 | 0.00 | 62 | 1022.2 |
| 20260502224822 | 15 | 360 | 6.4 | 17.7 | 0.00 | 0.00 | 0.00 | 62 | 1022.3 |
| 20260502224320 | 16 | 24 | 8.0 | 17.7 | 0.00 | 0.00 | 0.00 | 61 | 1022.3 |
| 20260502223838 | 15 | 14 | 6.4 | 14.5 | 0.00 | 0.00 | 0.00 | 61 | 1022.3 |
| 20260502223334 | 15 | 312 | 6.4 | 12.9 | 0.00 | 0.00 | 0.00 | 62 | 1022.4 |
| 20260502222848 | 15 | 351 | 8.0 | 14.5 | 0.00 | 0.00 | 0.00 | 63 | 1022.4 |
| 20260502222323 | 15 | 5 | 9.7 | 14.5 | 0.00 | 0.00 | 0.00 | 62 | 1022.4 |
| 20260502221821 | 16 | 360 | 8.0 | 12.9 | 0.00 | 0.00 | 0.00 | 61 | 1022.3 |
| 20260502221348 | 16 | 360 | 9.7 | 12.9 | 0.00 | 0.00 | 0.00 | 61 | 1022.4 |
| 20260502220824 | 16 | 323 | 6.4 | 11.3 | 0.00 | 0.00 | 0.00 | 61 | 1022.3 |
| 20260502220321 | 16 | 329 | 4.8 | 12.9 | 0.00 | 0.00 | 0.00 | 61 | 1022.4 |
| 20260502215817 | 16 | 286 | 9.7 | 12.9 | 0.00 | 0.00 | 0.00 | 61 | 1022.4 |
| 20260502215336 | 16 | 275 | 4.8 | 11.3 | 0.00 | 0.00 | 0.00 | 61 | 1022.3 |
| 20260502214815 | 16 | 281 | 6.4 | 11.3 | 0.00 | 0.00 | 0.00 | 60 | 1022.4 |
| 20260502214331 | 16 | 15 | 3.2 | 9.7 | 0.00 | 0.00 | 0.00 | 59 | 1022.3 |
| 20260502213829 | 17 | 18 | 3.2 | 9.7 | 0.00 | 0.00 | 0.00 | 59 | 1022.2 |
| 20260502213326 | 17 | 46 | 1.6 | 9.7 | 0.00 | 0.00 | 0.00 | 58 | 1022.2 |
| 20260502212825 | 16 | 348 | 3.2 | 8.0 | 0.00 | 0.00 | 0.00 | 59 | 1022.3 |
| 20260502212324 | 16 | 11 | 3.2 | 17.7 | 0.00 | 0.00 | 0.00 | 59 | 1022.3 |
| 20260502211822 | 16 | 19 | 8.0 | 17.7 | 0.00 | 0.00 | 0.00 | 59 | 1022.2 |
| 20260502211320 | 16 | 19 | 6.4 | 12.9 | 0.00 | 0.00 | 0.00 | 60 | 1022.2 |
| 20260502210840 | 16 | 319 | 3.2 | 8.0 | 0.00 | 0.00 | 0.00 | 59 | 1022.3 |
| 20260502210336 | 16 | 311 | 6.4 | 8.0 | 0.00 | 0.00 | 0.00 | 60 | 1022.3 |
| 20260502205832 | 16 | 281 | 6.4 | 8.0 | 0.00 | 0.00 | 0.00 | 59 | 1022.4 |
| 20260502205330 | 16 | 267 | 6.4 | 12.9 | 0.00 | 0.00 | 0.00 | 58 | 1022.4 |
| 20260502204828 | 16 | 5 | 4.8 | 12.9 | 0.00 | 0.00 | 0.00 | 57 | 1022.3 |
| 20260502204344 | 17 | 310 | 6.4 | 9.7 | 0.00 | 0.00 | 0.00 | 56 | 1022.2 |
| 20260502203823 | 17 | 27 | 3.2 | 8.0 | 0.00 | 0.00 | 0.00 | 55 | 1022.3 |
| 20260502203323 | 17 | 42 | 1.6 | 8.0 | 0.00 | 0.00 | 0.00 | 55 | 1022.2 |
| 20260502202823 | 16 | 360 | 6.4 | 9.7 | 0.00 | 0.00 | 0.00 | 55 | 1022.3 |
| 20260502202321 | 16 | 333 | 6.4 | 9.7 | 0.00 | 0.00 | 0.00 | 54 | 1022.3 |
| 20260502201819 | 16 | 315 | 8.0 | 9.7 | 0.00 | 0.00 | 0.00 | 55 | 1022.2 |
| 20260502201317 | 16 | 292 | 6.4 | 11.3 | 0.00 | 0.00 | 0.00 | 55 | 1022.3 |
| 20260502200814 | 16 | 287 | 4.8 | 11.3 | 0.00 | 0.00 | 0.00 | 54 | 1022.4 |
| 20260502200333 | 17 | 283 | 4.8 | 6.4 | 0.00 | 0.00 | 0.00 | 53 | 1022.2 |
| 20260502195830 | 17 | 46 | 1.6 | 8.0 | 0.00 | 0.00 | 0.00 | 51 | 1022.2 |
| 20260502195327 | 17 | 46 | 3.2 | 12.9 | 0.00 | 0.00 | 0.00 | 50 | 1022.2 |
| 20260502194845 | 17 | 351 | 8.0 | 12.9 | 0.00 | 0.00 | 0.00 | 49 | 1022.1 |
| 20260502194323 | 17 | 323 | 8.0 | 12.9 | 0.00 | 0.00 | 0.00 | 50 | 1022.0 |
| 20260502193821 | 17 | 327 | 8.0 | 14.5 | 0.00 | 0.00 | 0.00 | 51 | 1022.1 |
| 20260502193319 | 17 | 336 | 8.0 | 14.5 | 0.00 | 0.00 | 0.00 | 50 | 1022.1 |
| 20260502192819 | 18 | 336 | 8.0 | 12.9 | 0.00 | 0.00 | 0.00 | 50 | 1021.9 |
| 20260502192318 | 18 | 326 | 8.0 | 14.5 | 0.00 | 0.00 | 0.00 | 50 | 1022.0 |
| 20260502191836 | 18 | 327 | 11.3 | 14.5 | 0.00 | 0.00 | 0.00 | 50 | 1022.0 |
| 20260502191330 | 18 | 332 | 8.0 | 12.9 | 0.00 | 0.00 | 0.00 | 50 | 1021.9 |
| 20260502190829 | 18 | 335 | 8.0 | 14.5 | 0.00 | 0.00 | 0.00 | 49 | 1021.9 |
| 20260502190347 | 18 | 340 | 6.4 | 14.5 | 0.00 | 0.00 | 0.00 | 49 | 1021.9 |
| 20260502185825 | 18 | 338 | 8.0 | 14.5 | 0.00 | 0.00 | 0.00 | 49 | 1021.8 |
| 20260502185345 | 18 | 344 | 8.0 | 14.5 | 0.00 | 0.00 | 0.00 | 48 | 1021.8 |
| 20260502184850 | 18 | 319 | 9.7 | 14.5 | 0.00 | 0.00 | 0.00 | 49 | 1021.8 |
| 20260502184327 | 18 | 322 | 9.7 | 14.5 | 0.00 | 0.00 | 0.00 | 49 | 1021.6 |
| 20260502183826 | 18 | 301 | 9.7 | 14.5 | 0.00 | 0.00 | 0.00 | 49 | 1021.7 |
| 20260502183322 | 18 | 323 | 9.7 | 12.9 | 0.00 | 0.00 | 0.00 | 49 | 1021.6 |
| 20260502182821 | 18 | 351 | 9.7 | 14.5 | 0.00 | 0.00 | 0.00 | 49 | 1021.5 |
| 20260502182340 | 18 | 319 | 12.9 | 14.5 | 0.00 | 0.00 | 0.00 | 50 | 1021.5 |
| 20260502181815 | 18 | 325 | 8.0 | 9.7 | 0.00 | 0.00 | 0.00 | 49 | 1021.5 |
| 20260502181333 | 18 | 324 | 8.0 | 9.7 | 0.00 | 0.00 | 0.00 | 49 | 1021.4 |
| 20260502180852 | 19 | 336 | 8.0 | 9.7 | 0.00 | 0.00 | 0.00 | 48 | 1021.5 |
| 20260502180329 | 19 | 333 | 8.0 | 9.7 | 0.00 | 0.00 | 0.00 | 48 | 1021.4 |
| 20260502170329 | 20 | 139 | 6.4 | 11.3 | 0.00 | 0.00 | 0.00 | 45 | 1021.6 |
| 20260502164319 | 20 | 186 | 1.6 | 19.3 | 0.00 | 0.00 | 0.00 | 46 | 1021.7 |
| 20260502163818 | 20 | 143 | 9.7 | 19.3 | 0.00 | 0.00 | 0.00 | 46 | 1021.7 |
| 20260502163316 | 20 | 130 | 3.2 | 12.9 | 0.00 | 0.00 | 0.00 | 46 | 1021.6 |
| 20260502162854 | 20 | 171 | 4.8 | 12.9 | 0.00 | 0.00 | 0.00 | 46 | 1021.7 |
| 20260502162329 | 20 | 128 | 4.8 | 12.9 | 0.00 | 0.00 | 0.00 | 46 | 1021.7 |
| 20260502161823 | 20 | 131 | 3.2 | 6.4 | 0.00 | 0.00 | 0.00 | 47 | 1021.8 |
| 20260502161320 | 20 | 138 | 3.2 | 9.7 | 0.00 | 0.00 | 0.00 | 48 | 1021.8 |
| 20260502160838 | 20 | 198 | 6.4 | 17.7 | 0.00 | 0.00 | 0.00 | 48 | 1021.9 |
| 20260502160317 | 20 | 171 | 8.0 | 17.7 | 0.00 | 0.00 | 0.00 | 48 | 1021.9 |
| 20260502152319 | 20 | 163 | 6.4 | 14.5 | 0.00 | 0.00 | 0.00 | 51 | 1022.1 |
| 20260502151818 | 20 | 203 | 9.7 | 16.1 | 0.00 | 0.00 | 0.00 | 48 | 1022.1 |
| 20260502151336 | 20 | 164 | 8.0 | 12.9 | 0.00 | 0.00 | 0.00 | 49 | 1022.2 |
| 20260502150834 | 20 | 164 | 4.8 | 14.5 | 0.00 | 0.00 | 0.00 | 50 | 1022.2 |
| 20260502150331 | 20 | 185 | 6.4 | 14.5 | 0.00 | 0.00 | 0.00 | 50 | 1022.1 |
| 20260502130323 | 20 | 136 | 8.0 | 19.3 | 0.00 | 0.00 | 0.00 | 49 | 1023.8 |
| 20260502123328 | 18 | 136 | 14.5 | 20.9 | 0.00 | 0.00 | 0.00 | 51 | 1024.1 |
| 20260502122825 | 18 | 136 | 14.5 | 20.9 | 0.00 | 0.00 | 0.00 | 52 | 1024.1 |
| 20260502122325 | 19 | 133 | 14.5 | 20.9 | 0.00 | 0.00 | 0.00 | 49 | 1024.1 |
| 20260502121824 | 18 | 159 | 12.9 | 22.5 | 0.00 | 0.00 | 0.00 | 52 | 1024.4 |
| 20260502121320 | 18 | 145 | 14.5 | 20.9 | 0.00 | 0.00 | 0.00 | 51 | 1024.4 |
| 20260502120819 | 18 | 152 | 9.7 | 20.9 | 0.00 | 0.00 | 0.00 | 52 | 1024.4 |
| 20260502120338 | 18 | 157 | 14.5 | 22.5 | 0.00 | 0.00 | 0.00 | 49 | 1024.4 |
| 20260502115852 | 18 | 136 | 12.9 | 19.3 | 0.00 | 0.00 | 0.00 | 52 | 1024.5 |
| 20260502115329 | 18 | 153 | 11.3 | 19.3 | 0.00 | 0.00 | 0.00 | 50 | 1024.7 |
| 20260502114828 | 18 | 138 | 12.9 | 19.3 | 0.00 | 0.00 | 0.00 | 49 | 1024.6 |
| 20260502114345 | 18 | 145 | 12.9 | 20.9 | 0.00 | 0.00 | 0.00 | 51 | 1024.7 |
| 20260502113843 | 18 | 135 | 12.9 | 20.9 | 0.00 | 0.00 | 0.00 | 52 | 1024.8 |
| 20260502113319 | 18 | 138 | 16.1 | 20.9 | 0.00 | 0.00 | 0.00 | 50 | 1024.8 |
| 20260502112817 | 18 | 149 | 14.5 | 19.3 | 0.00 | 0.00 | 0.00 | 52 | 1025.0 |
| 20260502112315 | 18 | 140 | 11.3 | 19.3 | 0.00 | 0.00 | 0.00 | 52 | 1025.1 |
| 20260502111859 | 18 | 146 | 14.5 | 24.1 | 0.00 | 0.00 | 0.00 | 52 | 1025.1 |
| 20260502111354 | 18 | 145 | 11.3 | 24.1 | 0.00 | 0.00 | 0.00 | 53 | 1025.2 |
| 20260502110830 | 17 | 165 | 11.3 | 17.7 | 0.00 | 0.00 | 0.00 | 54 | 1025.2 |
| 20260502110329 | 18 | 137 | 9.7 | 17.7 | 0.00 | 0.00 | 0.00 | 53 | 1025.4 |
| 20260502105828 | 17 | 173 | 4.8 | 17.7 | 0.00 | 0.00 | 0.00 | 54 | 1025.6 |
| 20260502105324 | 18 | 136 | 11.3 | 17.7 | 0.00 | 0.00 | 0.00 | 53 | 1025.6 |
| 20260502104820 | 18 | 207 | 9.7 | 16.1 | 0.00 | 0.00 | 0.00 | 54 | 1025.8 |
| 20260502104315 | 17 | 156 | 11.3 | 16.1 | 0.00 | 0.00 | 0.00 | 55 | 1025.9 |
| 20260502103831 | 17 | 144 | 6.4 | 16.1 | 0.00 | 0.00 | 0.00 | 55 | 1025.9 |
| 20260502103350 | 17 | 130 | 8.0 | 16.1 | 0.00 | 0.00 | 0.00 | 53 | 1025.9 |
| 20260502102827 | 17 | 194 | 9.7 | 14.5 | 0.00 | 0.00 | 0.00 | 55 | 1026.0 |
| 20260502102326 | 17 | 182 | 8.0 | 14.5 | 0.00 | 0.00 | 0.00 | 55 | 1026.0 |
| 20260502101321 | 17 | 174 | 4.8 | 17.7 | 0.00 | 0.00 | 0.00 | 54 | 1026.1 |
| 20260502100834 | 17 | 168 | 11.3 | 17.7 | 0.00 | 0.00 | 0.00 | 53 | 1026.2 |
| 20260502100351 | 17 | 137 | 6.4 | 12.9 | 0.00 | 0.00 | 0.00 | 55 | 1026.2 |
| 20260502091325 | 16 | 193 | 4.8 | 8.0 | 0.00 | 0.00 | 0.00 | 56 | 1026.5 |
| 20260502090823 | 16 | 206 | 6.4 | 8.0 | 0.00 | 0.00 | 0.00 | 54 | 1026.5 |
| 20260502090340 | 16 | 142 | 6.4 | 8.0 | 0.00 | 0.00 | 0.00 | 58 | 1026.7 |
| 20260502071332 | 13 | 178 | 6.4 | 11.3 | 0.00 | 0.00 | 0.00 | 73 | 1027.5 |
| 20260502070851 | 13 | 190 | 9.7 | 11.3 | 0.00 | 0.00 | 0.00 | 71 | 1027.5 |
| 20260502070349 | 13 | 136 | 3.2 | 8.0 | 0.00 | 0.00 | 0.00 | 71 | 1027.5 |
| 20260502065827 | 13 | 144 | 3.2 | 6.4 | 0.00 | 0.00 | 0.00 | 71 | 1027.6 |
| 20260502065324 | 13 | 131 | 3.2 | 6.4 | 0.00 | 0.00 | 0.00 | 71 | 1027.6 |
| 20260502064841 | 13 | 168 | 3.2 | 6.4 | 0.00 | 0.00 | 0.00 | 73 | 1027.6 |
| 20260502064319 | 13 | 134 | 3.2 | 8.0 | 0.00 | 0.00 | 0.00 | 72 | 1027.6 |
| 20260502063817 | 13 | 137 | 4.8 | 8.0 | 0.00 | 0.00 | 0.00 | 72 | 1027.6 |
| 20260502063317 | 13 | 174 | 1.6 | 6.4 | 0.00 | 0.00 | 0.00 | 71 | 1027.6 |
| 20260502062814 | 13 | 197 | 3.2 | 6.4 | 0.00 | 0.00 | 0.00 | 70 | 1027.7 |
| 20260502062341 | 13 | 71 | 1.6 | 4.8 | 0.00 | 0.00 | 0.00 | 71 | 1027.6 |
| 20260502061817 | 13 | 61 | 1.6 | 6.4 | 0.00 | 0.00 | 0.00 | 71 | 1027.6 |
| 20260502061316 | 12 | 61 | 4.8 | 6.4 | 0.00 | 0.00 | 0.00 | 72 | 1027.6 |
| 20260502060814 | 12 | 57 | 1.6 | 4.8 | 0.00 | 0.00 | 0.00 | 71 | 1027.6 |
| 20260502060334 | 12 | 57 | 1.6 | 4.8 | 0.00 | 0.00 | 0.00 | 71 | 1027.7 |
| 20260502055832 | 12 | 56 | 1.6 | 3.2 | 0.00 | 0.00 | 0.00 | 72 | 1027.7 |
| 20260502055328 | 12 | 219 | 0.0 | 6.4 | 0.00 | 0.00 | 0.00 | 72 | 1027.6 |
| 20260502054824 | 12 | 217 | 3.2 | 6.4 | 0.00 | 0.00 | 0.00 | 71 | 1027.7 |
| 20260502054322 | 12 | 298 | 0.0 | 3.2 | 0.00 | 0.00 | 0.00 | 72 | 1027.6 |
| 20260502053820 | 11 | 298 | 0.0 | 4.8 | 0.00 | 0.00 | 0.00 | 72 | 1027.7 |
| 20260502053320 | 11 | 296 | 3.2 | 4.8 | 0.00 | 0.00 | 0.00 | 71 | 1027.7 |
| 20260502052818 | 11 | 296 | 1.6 | 6.4 | 0.00 | 0.00 | 0.00 | 72 | 1027.7 |
| 20260502052316 | 11 | 308 | 3.2 | 6.4 | 0.00 | 0.00 | 0.00 | 71 | 1027.7 |
| 20260502051834 | 11 | 309 | 3.2 | 6.4 | 0.00 | 0.00 | 0.00 | 71 | 1027.7 |
| 20260502051332 | 11 | 306 | 4.8 | 8.0 | 0.00 | 0.00 | 0.00 | 72 | 1027.7 |
| 20260502050846 | 11 | 292 | 6.4 | 8.0 | 0.00 | 0.00 | 0.00 | 71 | 1027.6 |
| 20260502050322 | 11 | 303 | 3.2 | 6.4 | 0.00 | 0.00 | 0.00 | 70 | 1027.6 |
| 20260502045818 | 11 | 301 | 4.8 | 6.4 | 0.00 | 0.00 | 0.00 | 70 | 1027.6 |
| 20260502045335 | 11 | 286 | 1.6 | 4.8 | 0.00 | 0.00 | 0.00 | 70 | 1027.6 |
| 20260502044832 | 11 | 286 | 1.6 | 4.8 | 0.00 | 0.00 | 0.00 | 71 | 1027.6 |
| 20260502044349 | 11 | 286 | 3.2 | 4.8 | 0.00 | 0.00 | 0.00 | 71 | 1027.6 |
| 20260502043847 | 11 | 320 | 1.6 | 4.8 | 0.00 | 0.00 | 0.00 | 71 | 1027.7 |
| 20260502043323 | 11 | 321 | 1.6 | 4.8 | 0.00 | 0.00 | 0.00 | 71 | 1027.6 |
| 20260502042821 | 11 | 335 | 0.0 | 6.4 | 0.00 | 0.00 | 0.00 | 71 | 1027.6 |
| 20260502042321 | 10 | 335 | 3.2 | 6.4 | 0.00 | 0.00 | 0.00 | 72 | 1027.6 |
| 20260502041839 | 10 | 332 | 4.8 | 6.4 | 0.00 | 0.00 | 0.00 | 72 | 1027.6 |
| 20260502041336 | 10 | 322 | 1.6 | 6.4 | 0.00 | 0.00 | 0.00 | 72 | 1027.7 |
| 20260502040833 | 10 | 322 | 3.2 | 6.4 | 0.00 | 0.00 | 0.00 | 72 | 1027.7 |
| 20260502040351 | 10 | 321 | 4.8 | 6.4 | 0.00 | 0.00 | 0.00 | 72 | 1027.7 |
| 20260502035848 | 11 | 336 | 3.2 | 4.8 | 0.00 | 0.00 | 0.00 | 71 | 1027.6 |